Find Starlink 35144

NORAD ID: 65538 Int'l Des: 2025-200 Owner: SPXS Country: US Constellation: starlink operational
LEOCIRCULARRETROGRADESSO

实时位置

正在加载3D地球...

关于 Starlink 35144

正在加载描述...

即将过境

Passes for default location (London). Set your location on the main map for personalized predictions.

高度历史

Loading altitude history...

两行轨道根数

1 65538U 25200U 26106.66621972 .00002804 00000-0 19846-3 0 9995
2 65538 97.6041 177.2100 0001713 187.6084 172.5117 15.05652045 34846
Epoch: Apr 16, 2026 • Age: 20 hours

当前状态

高度 568.6 km
速度 7.58 km/s
星下点 -51.22°S, 39.43°W
发射日期 Sep 6, 2025
运行时间 0.6 years
类型 internet

技术详情

分类 Payload
质量 575.00 kg
干质量 530.00 kg
总质量 575.00 kg
长度 0.30 m
直径 4.10 m
跨度 29.00 m
形状 Box + pan
制造商 SPXS
平台类型 Starlink V2MO
阶段状态 In Orbit
所有者/国家 SPXS/US

Most Searched